This demonstration page uses our WeatherBlox Daily Observations layout. Learn more.

Left ArrowRight Arrow

34.16533, -84.80231

Hourly Observations for March 19, 2020

Temp ( °F °C ) Dew Point ( °F °C ) Humidity (%) Winds ( mph kmh ) Pressure ( in mb ) Visibility ( mi km ) Precip ( " mm )
12:53 am 00:53 Clear 62 16.7 58 14.4 86 86 E 6 9 30.22 1024 8 13 0.00 0.00
1:53 am 01:53 Mostly Cloudy 61 16.1 57 13.9 87 87 E 6 9 30.22 1024 7 11 0.00 0.00
2:06 am 02:06 Mostly Cloudy 61 16.1 57 13.9 87 87 E 5 7 30.24 1024 7 11 0.00 0.00
2:15 am 02:15 Cloudy with Mist and Fog 61 16.1 57 13.9 87 87 ESE 7 11 30.24 1024 6 10 0.00 0.00
2:53 am 02:53 Cloudy with Mist and Fog 61 16.1 58 14.4 90 90 E 8 13 30.23 1024 6 10 0.00 0.00
3:31 am 03:31 Cloudy with Mist and Fog 60 15.6 58 14.4 93 93 ESE 5 7 30.24 1024 4 6 0.00 0.00
3:53 am 03:53 Cloudy with Mist and Fog 60 15.6 58 14.4 93 93 VRB 6 9 30.21 1023 4 6 0.00 0.00
4:53 am 04:53 Cloudy with Mist and Fog 60 15.6 58 14.4 93 93 VRB 3 6 30.21 1023 3 5 0.00 0.00
5:53 am 05:53 Cloudy with Mist and Fog 60 15.6 58 14.4 93 93 VRB 7 11 30.22 1023 3 5 0.00 0.00
6:53 am 06:53 Cloudy with Mist and Fog 60 15.6 58 14.4 93 93 VRB 5 7 30.22 1023 3 5 0.00 0.00
7:19 am 07:19 Cloudy with Mist and Fog 60 15.6 58 14.4 93 93 VRB 5 7 30.24 1024 3 4 0.00 0.00
7:43 am 07:43 Cloudy with Mist and Fog 60 15.6 58 14.4 93 93 ESE 3 6 30.25 1025 1 2 0.00 0.00
7:53 am 07:53 Cloudy with Mist and Fog 60 15.6 58 14.4 93 93 ESE 6 9 30.23 1024 2 2 0.00 0.00
8:53 am 08:53 Cloudy with Mist and Fog 60 15.6 58 14.4 93 93 VRB 5 7 30.24 1024 2 3 0.00 0.00
9:01 am 09:01 Cloudy with Mist and Fog 60 15.6 58 14.4 93 93 E 3 6 30.26 1025 2 3 0.00 0.00
9:21 am 09:21 Cloudy with Mist and Fog 61 16.1 59 15 93 93 E 6 9 30.26 1025 3 5 0.00 0.00
9:53 am 09:53 Cloudy with Mist and Fog 62 16.7 59 15 90 90 VRB 3 6 30.23 1024 5 8 0.00 0.00
10:27 am 10:27 Cloudy 64 17.8 60 15.6 87 87 VRB 5 7 30.26 1025 7 11 0.00 0.00
10:53 am 10:53 Cloudy 65 18.3 60 15.6 84 84 E 5 7 30.24 1024 8 13 0.00 0.00
11:25 am 11:25 Partly Cloudy 69 20.6 62 16.7 78 78 SE 8 13 30.25 1024 10 16 0.00 0.00
11:53 am 11:53 Sunny 72 22.2 63 17.2 73 73 SSE 9 15 30.23 1024 10 16 0.00 0.00
12:53 pm 12:53 Mostly Sunny 75 23.9 63 17.2 66 66 VRB 7 11 30.23 1024 10 16 0.00 0.00
1:53 pm 13:53 Mostly Cloudy 78 25.6 60 15.6 54 54 VRB 6 9 30.21 1023 10 16 0.00 0.00
2:53 pm 14:53 Mostly Cloudy 81 27.2 60 15.6 49 49 VRB 5 7 30.17 1022 10 16 0.00 0.00
3:53 pm 15:53 Mostly Cloudy 81 27.2 60 15.6 49 49 VRB 7 11 30.17 1022 10 16 0.00 0.00
4:53 pm 16:53 Cloudy 80 26.7 60 15.6 51 51 VRB 7 11 30.17 1022 10 16 0.00 0.00
5:53 pm 17:53 Mostly Sunny 80 26.7 60 15.6 51 51 VRB 7 11 30.17 1022 10 16 0.00 0.00
6:53 pm 18:53 Partly Cloudy 79 26.1 58 14.4 49 49 VRB 6 9 30.18 1022 10 16 0.00 0.00
7:53 pm 19:53 Clear 71 21.7 60 15.6 68 68 VRB 5 7 30.18 1022 10 16 0.00 0.00
8:53 pm 20:53 Clear 70 21.1 60 15.6 71 71 Calm 30.18 1022 10 16 0.00 0.00
9:53 pm 21:53 Clear 72 22.2 60 15.6 66 66 SSE 5 7 30.18 1022 10 16 0.00 0.00
10:53 pm 22:53 Clear 66 18.9 60 15.6 81 81 Calm 30.19 1022 10 16 0.00 0.00
11:53 pm 23:53 Clear 63 17.2 59 15 87 87 Calm 30.18 1022 10 16 0.00 0.00

Powered by AerisWeather